| time (UTC) | temp F | wind direction | speed MPH | gust MPH | rain 1hr in | rain 24hr in | rain mn in | humidity % | barometer mb |
| 20260906181206 | 56 | 67 | 0.0 | 0.0 | 0.00 | 0.00 | 0.00 | 62 | 1013.4 |
| 20260906180906 | 57 | 67 | 0.0 | 0.0 | 0.00 | 0.00 | 0.00 | 62 | 1013.4 |
| 20260906180606 | 57 | 67 | 0.0 | 0.0 | 0.00 | 0.00 | 0.00 | 61 | 1013.2 |
| 20260906180005 | 58 | 67 | 0.0 | 0.0 | 0.00 | 0.00 | 0.00 | 61 | 1013.4 |
| 20260906175705 | 57 | 67 | 0.0 | 0.0 | 0.00 | 0.00 | 0.00 | 61 | 1013.2 |
| 20260906175406 | 58 | 67 | 0.0 | 0.0 | 0.00 | 0.00 | 0.00 | 61 | 1013.4 |
| 20260906175105 | 59 | 67 | 0.0 | 0.0 | 0.00 | 0.00 | 0.00 | 60 | 1013.4 |
| 20260906174805 | 59 | 67 | 0.0 | 0.0 | 0.00 | 0.00 | 0.00 | 60 | 1013.4 |
| 20260906174505 | 59 | 67 | 0.0 | 0.0 | 0.00 | 0.00 | 0.00 | 61 | 1013.4 |
| 20260906173905 | 60 | 337 | 0.0 | 0.0 | 0.00 | 0.00 | 0.00 | 59 | 1013.4 |
| 20260906173605 | 61 | 67 | 0.0 | 0.0 | 0.00 | 0.00 | 0.00 | 59 | 1013.4 |
| 20260906173306 | 61 | 67 | 0.0 | 0.0 | 0.00 | 0.00 | 0.00 | 59 | 1013.4 |
| 20260906173006 | 62 | 67 | 0.0 | 0.0 | 0.00 | 0.00 | 0.00 | 59 | 1013.4 |
| 20260906172706 | 62 | 67 | 0.0 | 0.0 | 0.00 | 0.00 | 0.00 | 59 | 1013.6 |
| 20260906172106 | 62 | 67 | 0.0 | 0.0 | 0.00 | 0.00 | 0.00 | 58 | 1013.6 |
| 20260906171805 | 63 | 67 | 0.0 | 0.0 | 0.00 | 0.00 | 0.00 | 57 | 1013.6 |
| 20260906171505 | 63 | 67 | 0.0 | 0.0 | 0.00 | 0.00 | 0.00 | 56 | 1013.4 |
| 20260906171205 | 63 | 67 | 0.0 | 0.0 | 0.00 | 0.00 | 0.00 | 57 | 1013.4 |
| 20260906170606 | 64 | 337 | 0.0 | 0.0 | 0.00 | 0.00 | 0.00 | 54 | 1013.6 |
| 20260906170306 | 65 | 337 | 0.0 | 0.0 | 0.00 | 0.00 | 0.00 | 54 | 1013.6 |
| 20260906170005 | 66 | 270 | 0.0 | 0.0 | 0.00 | 0.00 | 0.00 | 54 | 1013.6 |
| 20260906165705 | 66 | 270 | 0.0 | 0.0 | 0.00 | 0.00 | 0.00 | 54 | 1013.6 |
| 20260906165405 | 67 | 270 | 0.0 | 0.0 | 0.00 | 0.00 | 0.00 | 53 | 1013.6 |
| 20260906164805 | 67 | 270 | 0.0 | 0.0 | 0.00 | 0.00 | 0.00 | 52 | 1013.6 |
| 20260906164506 | 68 | 337 | 0.0 | 0.0 | 0.00 | 0.00 | 0.00 | 52 | 1013.4 |
| 20260906164206 | 68 | 270 | 0.0 | 0.0 | 0.00 | 0.00 | 0.00 | 50 | 1013.6 |
| 20260906163906 | 69 | 270 | 0.0 | 0.0 | 0.00 | 0.00 | 0.00 | 48 | 1013.6 |
| 20260906163306 | 70 | 270 | 0.0 | 0.0 | 0.00 | 0.00 | 0.00 | 46 | 1013.6 |
| 20260906163006 | 71 | 337 | 0.0 | 0.0 | 0.00 | 0.00 | 0.00 | 46 | 1013.4 |
| 20260906162706 | 71 | 202 | 0.0 | 0.0 | 0.00 | 0.00 | 0.00 | 44 | 1013.6 |
| 20260906162405 | 71 | 135 | 0.0 | 0.0 | 0.00 | 0.00 | 0.00 | 43 | 1013.6 |
| 20260906162106 | 72 | 180 | 0.0 | 0.0 | 0.00 | 0.00 | 0.00 | 41 | 1013.4 |
| 20260906161809 | 72 | 180 | 0.0 | 0.0 | 0.00 | 0.00 | 0.00 | 42 | 1013.4 |
| 20260906161506 | 72 | 180 | 1.0 | 1.0 | 0.00 | 0.00 | 0.00 | 41 | 1013.4 |
| 20260906161205 | 72 | 135 | 0.0 | 0.0 | 0.00 | 0.00 | 0.00 | 41 | 1013.6 |
| 20260906160906 | 72 | 202 | 3.0 | 3.0 | 0.00 | 0.00 | 0.00 | 40 | 1013.6 |
| 20260906160606 | 72 | 180 | 2.0 | 2.0 | 0.00 | 0.00 | 0.00 | 41 | 1013.6 |
| 20260906160306 | 73 | 225 | 1.0 | 1.0 | 0.00 | 0.00 | 0.00 | 40 | 1013.6 |
| 20260906160009 | 74 | 112 | 0.0 | 0.0 | 0.00 | 0.00 | 0.00 | 40 | 1013.6 |
| 20260906155706 | 73 | 180 | 2.0 | 2.0 | 0.00 | 0.00 | 0.00 | 40 | 1013.6 |
| 20260906155406 | 73 | 180 | 1.0 | 1.0 | 0.00 | 0.00 | 0.00 | 41 | 1013.6 |
| 20260906155106 | 74 | 67 | 0.0 | 0.0 | 0.00 | 0.00 | 0.00 | 39 | 1013.6 |
| 20260906154806 | 73 | 90 | 0.0 | 0.0 | 0.00 | 0.00 | 0.00 | 40 | 1013.6 |
| 20260906154505 | 74 | 337 | 0.0 | 0.0 | 0.00 | 0.00 | 0.00 | 40 | 1013.6 |
| 20260906154205 | 75 | 180 | 0.0 | 0.0 | 0.00 | 0.00 | 0.00 | 40 | 1013.6 |
| 20260906153606 | 74 | 180 | 0.0 | 0.0 | 0.00 | 0.00 | 0.00 | 40 | 1013.6 |
| 20260906153305 | 74 | 337 | 1.0 | 1.0 | 0.00 | 0.00 | 0.00 | 40 | 1013.6 |
| 20260906153006 | 74 | 337 | 2.0 | 2.0 | 0.00 | 0.00 | 0.00 | 40 | 1013.6 |
| 20260906152705 | 73 | 0 | 1.0 | 2.0 | 0.00 | 0.00 | 0.00 | 38 | 1013.6 |
| 20260906152406 | 73 | 337 | 0.0 | 0.0 | 0.00 | 0.00 | 0.00 | 40 | 1013.6 |
| 20260906151505 | 73 | 90 | 0.0 | 0.0 | 0.00 | 0.00 | 0.00 | 39 | 1013.6 |
| 20260906151206 | 73 | 90 | 0.0 | 0.0 | 0.00 | 0.00 | 0.00 | 39 | 1013.6 |
| 20260906150906 | 72 | 90 | 2.0 | 2.0 | 0.00 | 0.00 | 0.00 | 39 | 1013.6 |
| 20260906150607 | 72 | 135 | 0.0 | 0.0 | 0.00 | 0.00 | 0.00 | 38 | 1013.6 |
| 20260906150305 | 72 | 337 | 0.0 | 0.0 | 0.00 | 0.00 | 0.00 | 39 | 1013.6 |
| 20260906150009 | 71 | 90 | 1.0 | 1.0 | 0.00 | 0.00 | 0.00 | 39 | 1013.9 |
| 20260906145706 | 72 | 90 | 1.0 | 1.0 | 0.00 | 0.00 | 0.00 | 38 | 1013.9 |
| 20260906145407 | 72 | 90 | 1.0 | 1.0 | 0.00 | 0.00 | 0.00 | 38 | 1014.1 |
| 20260906145106 | 72 | 180 | 2.0 | 2.0 | 0.00 | 0.00 | 0.00 | 38 | 1014.1 |
| 20260906144805 | 72 | 337 | 1.0 | 1.0 | 0.00 | 0.00 | 0.00 | 38 | 1014.1 |
| 20260906144506 | 71 | 202 | 1.0 | 1.0 | 0.00 | 0.00 | 0.00 | 37 | 1014.1 |
| 20260906144209 | 72 | 225 | 2.0 | 2.0 | 0.00 | 0.00 | 0.00 | 39 | 1014.1 |
| 20260906143906 | 71 | 337 | 3.0 | 3.0 | 0.00 | 0.00 | 0.00 | 38 | 1014.1 |
| 20260906143606 | 71 | 247 | 4.0 | 4.0 | 0.00 | 0.00 | 0.00 | 39 | 1014.1 |
| 20260906143306 | 71 | 225 | 3.0 | 3.0 | 0.00 | 0.00 | 0.00 | 39 | 1014.1 |
| 20260906143007 | 71 | 225 | 1.0 | 1.0 | 0.00 | 0.00 | 0.00 | 38 | 1014.1 |
| 20260906142705 | 71 | 292 | 0.0 | 0.0 | 0.00 | 0.00 | 0.00 | 37 | 1014.1 |
| 20260906142405 | 71 | 247 | 3.0 | 3.0 | 0.00 | 0.00 | 0.00 | 39 | 1014.4 |
| 20260906142109 | 71 | 90 | 1.0 | 1.0 | 0.00 | 0.00 | 0.00 | 39 | 1014.1 |
| 20260906141806 | 71 | 337 | 1.0 | 1.0 | 0.00 | 0.00 | 0.00 | 40 | 1014.1 |
| 20260906141505 | 71 | 112 | 0.0 | 0.0 | 0.00 | 0.00 | 0.00 | 38 | 1014.1 |
| 20260906141206 | 70 | 202 | 3.0 | 3.0 | 0.00 | 0.00 | 0.00 | 38 | 1014.1 |
| 20260906140907 | 70 | 337 | 4.0 | 4.0 | 0.00 | 0.00 | 0.00 | 38 | 1014.4 |
| 20260906140606 | 71 | 270 | 2.0 | 2.0 | 0.00 | 0.00 | 0.00 | 38 | 1014.6 |
| 20260906140306 | 70 | 337 | 5.0 | 6.0 | 0.00 | 0.00 | 0.00 | 40 | 1014.4 |
| 20260906135706 | 70 | 292 | 1.0 | 1.0 | 0.00 | 0.00 | 0.00 | 41 | 1014.4 |
| 20260906135406 | 70 | 315 | 1.0 | 1.0 | 0.00 | 0.00 | 0.00 | 41 | 1014.6 |
| 20260906135106 | 70 | 225 | 1.0 | 1.0 | 0.00 | 0.00 | 0.00 | 41 | 1014.6 |
| 20260906134806 | 69 | 180 | 2.0 | 2.0 | 0.00 | 0.00 | 0.00 | 41 | 1014.6 |
| 20260906134506 | 70 | 180 | 1.0 | 1.0 | 0.00 | 0.00 | 0.00 | 41 | 1014.6 |
| 20260906134206 | 70 | 337 | 1.0 | 1.0 | 0.00 | 0.00 | 0.00 | 40 | 1014.6 |
| 20260906133606 | 70 | 202 | 4.0 | 4.0 | 0.00 | 0.00 | 0.00 | 40 | 1014.6 |
| 20260906133306 | 70 | 337 | 2.0 | 2.0 | 0.00 | 0.00 | 0.00 | 41 | 1014.4 |
| 20260906133006 | 69 | 90 | 2.0 | 2.0 | 0.00 | 0.00 | 0.00 | 39 | 1014.6 |
| 20260906132706 | 70 | 180 | 2.0 | 2.0 | 0.00 | 0.00 | 0.00 | 40 | 1014.6 |
| 20260906132406 | 70 | 202 | 2.0 | 2.0 | 0.00 | 0.00 | 0.00 | 40 | 1014.6 |
| 20260906132105 | 71 | 180 | 1.0 | 2.0 | 0.00 | 0.00 | 0.00 | 42 | 1014.6 |
| 20260906131505 | 70 | 180 | 4.0 | 4.0 | 0.00 | 0.00 | 0.00 | 42 | 1014.6 |
| 20260906131205 | 70 | 180 | 3.0 | 3.0 | 0.00 | 0.00 | 0.00 | 41 | 1014.6 |
| 20260906130905 | 70 | 225 | 1.0 | 1.0 | 0.00 | 0.00 | 0.00 | 42 | 1014.6 |
| 20260906130606 | 70 | 225 | 3.0 | 3.0 | 0.00 | 0.00 | 0.00 | 43 | 1014.6 |
| 20260906130005 | 70 | 157 | 2.0 | 2.0 | 0.00 | 0.00 | 0.00 | 41 | 1014.6 |
| 20260906125706 | 69 | 157 | 2.0 | 2.0 | 0.00 | 0.00 | 0.00 | 41 | 1014.6 |
| 20260906125406 | 69 | 90 | 0.0 | 0.0 | 0.00 | 0.00 | 0.00 | 41 | 1014.6 |
| 20260906125107 | 69 | 337 | 1.0 | 1.0 | 0.00 | 0.00 | 0.00 | 42 | 1014.6 |
| 20260906124809 | 69 | 270 | 3.0 | 3.0 | 0.00 | 0.00 | 0.00 | 42 | 1014.6 |
| 20260906124506 | 69 | 180 | 3.0 | 3.0 | 0.00 | 0.00 | 0.00 | 41 | 1014.6 |
| 20260906124206 | 69 | 45 | 0.0 | 0.0 | 0.00 | 0.00 | 0.00 | 42 | 1014.6 |
| 20260906123905 | 69 | 180 | 0.0 | 0.0 | 0.00 | 0.00 | 0.00 | 43 | 1014.6 |
| 20260906123606 | 69 | 225 | 6.0 | 6.0 | 0.00 | 0.00 | 0.00 | 43 | 1014.9 |
| 20260906123306 | 68 | 270 | 2.0 | 2.0 | 0.00 | 0.00 | 0.00 | 42 | 1014.9 |
| 20260906123008 | 68 | 135 | 1.0 | 1.0 | 0.00 | 0.00 | 0.00 | 43 | 1014.9 |
| 20260906122706 | 69 | 270 | 2.0 | 2.0 | 0.00 | 0.00 | 0.00 | 44 | 1014.9 |
| 20260906122405 | 69 | 180 | 2.0 | 2.0 | 0.00 | 0.00 | 0.00 | 44 | 1014.9 |
| 20260906122106 | 68 | 225 | 2.0 | 2.0 | 0.00 | 0.00 | 0.00 | 46 | 1014.9 |
| 20260906121805 | 68 | 315 | 2.0 | 2.0 | 0.00 | 0.00 | 0.00 | 46 | 1015.1 |
| 20260906121509 | 68 | 337 | 2.0 | 2.0 | 0.00 | 0.00 | 0.00 | 43 | 1014.9 |
| 20260906121205 | 68 | 337 | 1.0 | 1.0 | 0.00 | 0.00 | 0.00 | 45 | 1015.1 |
| 20260906120906 | 68 | 180 | 5.0 | 5.0 | 0.00 | 0.00 | 0.00 | 46 | 1015.1 |
| 20260906120605 | 68 | 337 | 1.0 | 1.0 | 0.00 | 0.00 | 0.00 | 43 | 1015.1 |
| 20260906120005 | 67 | 90 | 3.0 | 3.0 | 0.00 | 0.00 | 0.00 | 42 | 1015.1 |
| 20260906115405 | 67 | 180 | 2.0 | 2.0 | 0.00 | 0.00 | 0.00 | 46 | 1015.1 |
| 20260906115106 | 67 | 202 | 2.0 | 2.0 | 0.00 | 0.00 | 0.00 | 46 | 1015.1 |
| 20260906114806 | 66 | 112 | 0.0 | 0.0 | 0.00 | 0.00 | 0.00 | 45 | 1015.1 |
| 20260906114506 | 67 | 180 | 1.0 | 1.0 | 0.00 | 0.00 | 0.00 | 47 | 1015.4 |
| 20260906114207 | 67 | 337 | 1.0 | 1.0 | 0.00 | 0.00 | 0.00 | 46 | 1015.4 |
| 20260906113905 | 67 | 180 | 2.0 | 2.0 | 0.00 | 0.00 | 0.00 | 49 | 1015.4 |
| 20260906113305 | 66 | 337 | 0.0 | 0.0 | 0.00 | 0.00 | 0.00 | 47 | 1015.4 |
| 20260906113006 | 67 | 225 | 2.0 | 2.0 | 0.00 | 0.00 | 0.00 | 49 | 1015.4 |
| 20260906112706 | 66 | 225 | 1.0 | 2.0 | 0.00 | 0.00 | 0.00 | 49 | 1015.4 |
| 20260906112406 | 66 | 270 | 1.0 | 1.0 | 0.00 | 0.00 | 0.00 | 50 | 1015.1 |
| 20260906112106 | 66 | 270 | 5.0 | 5.0 | 0.00 | 0.00 | 0.00 | 49 | 1015.4 |
| 20260906111505 | 65 | 67 | 3.0 | 3.0 | 0.00 | 0.00 | 0.00 | 47 | 1015.4 |
| 20260906111206 | 65 | 112 | 2.0 | 2.0 | 0.00 | 0.00 | 0.00 | 49 | 1015.6 |
| 20260906110906 | 65 | 337 | 1.0 | 1.0 | 0.00 | 0.00 | 0.00 | 50 | 1015.4 |
| 20260906110605 | 65 | 45 | 0.0 | 0.0 | 0.00 | 0.00 | 0.00 | 50 | 1015.6 |
| 20260906110306 | 64 | 337 | 2.0 | 2.0 | 0.00 | 0.00 | 0.00 | 50 | 1015.6 |
| 20260906110006 | 64 | 0 | 2.0 | 2.0 | 0.00 | 0.00 | 0.00 | 50 | 1015.6 |
| 20260906105708 | 65 | 315 | 0.0 | 0.0 | 0.00 | 0.00 | 0.00 | 53 | 1015.6 |
| 20260906105407 | 65 | 247 | 2.0 | 2.0 | 0.00 | 0.00 | 0.00 | 54 | 1015.6 |
| 20260906105106 | 64 | 22 | 0.0 | 0.0 | 0.00 | 0.00 | 0.00 | 53 | 1015.6 |
| 20260906104806 | 65 | 247 | 1.0 | 1.0 | 0.00 | 0.00 | 0.00 | 54 | 1015.6 |
| 20260906104506 | 65 | 180 | 2.0 | 2.0 | 0.00 | 0.00 | 0.00 | 56 | 1015.6 |
| 20260906103905 | 64 | 135 | 1.0 | 1.0 | 0.00 | 0.00 | 0.00 | 57 | 1015.6 |
| 20260906103606 | 63 | 90 | 2.0 | 2.0 | 0.00 | 0.00 | 0.00 | 56 | 1015.6 |
| 20260906103305 | 63 | 90 | 2.0 | 2.0 | 0.00 | 0.00 | 0.00 | 57 | 1015.6 |
| 20260906103006 | 63 | 90 | 3.0 | 3.0 | 0.00 | 0.00 | 0.00 | 56 | 1015.6 |
| 20260906102706 | 62 | 90 | 3.0 | 4.0 | 0.00 | 0.00 | 0.00 | 56 | 1015.6 |
| 20260906102405 | 63 | 90 | 1.0 | 1.0 | 0.00 | 0.00 | 0.00 | 57 | 1015.6 |
| 20260906101805 | 63 | 180 | 1.0 | 1.0 | 0.00 | 0.00 | 0.00 | 61 | 1015.6 |
| 20260906101506 | 63 | 337 | 2.0 | 2.0 | 0.00 | 0.00 | 0.00 | 61 | 1015.6 |
| 20260906101206 | 63 | 270 | 1.0 | 1.0 | 0.00 | 0.00 | 0.00 | 63 | 1015.6 |
| 20260906100905 | 63 | 225 | 2.0 | 2.0 | 0.00 | 0.00 | 0.00 | 63 | 1015.6 |
| 20260906100606 | 62 | 225 | 0.0 | 0.0 | 0.00 | 0.00 | 0.00 | 64 | 1015.9 |
| 20260906100006 | 62 | 67 | 2.0 | 2.0 | 0.00 | 0.00 | 0.00 | 64 | 1015.9 |
| 20260906095706 | 61 | 270 | 2.0 | 2.0 | 0.00 | 0.00 | 0.00 | 64 | 1015.9 |
| 20260906095406 | 61 | 45 | 0.0 | 0.0 | 0.00 | 0.00 | 0.00 | 65 | 1015.9 |
| 20260906095106 | 61 | 112 | 0.0 | 0.0 | 0.00 | 0.00 | 0.00 | 68 | 1015.9 |
| 20260906094805 | 61 | 292 | 0.0 | 0.0 | 0.00 | 0.00 | 0.00 | 67 | 1015.9 |
| 20260906094206 | 60 | 270 | 1.0 | 2.0 | 0.00 | 0.00 | 0.00 | 69 | 1015.9 |
| 20260906093905 | 60 | 225 | 5.0 | 5.0 | 0.00 | 0.00 | 0.00 | 69 | 1015.9 |
| 20260906093605 | 60 | 90 | 0.0 | 0.0 | 0.00 | 0.00 | 0.00 | 70 | 1015.9 |
| 20260906093305 | 60 | 135 | 1.0 | 1.0 | 0.00 | 0.00 | 0.00 | 71 | 1015.9 |
| 20260906093005 | 59 | 270 | 1.0 | 1.0 | 0.00 | 0.00 | 0.00 | 71 | 1015.9 |
| 20260906092709 | 59 | 315 | 2.0 | 2.0 | 0.00 | 0.00 | 0.00 | 70 | 1015.9 |
| 20260906092406 | 58 | 337 | 2.0 | 2.0 | 0.00 | 0.00 | 0.00 | 71 | 1015.9 |
| 20260906092106 | 58 | 337 | 0.0 | 0.0 | 0.00 | 0.00 | 0.00 | 70 | 1016.1 |
| 20260906091806 | 58 | 180 | 1.0 | 1.0 | 0.00 | 0.00 | 0.00 | 71 | 1016.1 |
| 20260906091506 | 59 | 180 | 1.0 | 2.0 | 0.00 | 0.00 | 0.00 | 73 | 1016.1 |
| 20260906091206 | 58 | 180 | 4.0 | 4.0 | 0.00 | 0.00 | 0.00 | 72 | 1016.1 |
| 20260906090907 | 58 | 135 | 1.0 | 1.0 | 0.00 | 0.00 | 0.00 | 72 | 1016.1 |
| 20260906090608 | 58 | 90 | 2.0 | 2.0 | 0.00 | 0.00 | 0.00 | 72 | 1015.9 |
| 20260906090305 | 58 | 135 | 2.0 | 2.0 | 0.00 | 0.00 | 0.00 | 73 | 1016.1 |
| 20260906090006 | 58 | 202 | 3.0 | 3.0 | 0.00 | 0.00 | 0.00 | 74 | 1016.1 |
| 20260906085706 | 57 | 337 | 2.0 | 2.0 | 0.00 | 0.00 | 0.00 | 74 | 1016.1 |
| 20260906085406 | 57 | 180 | 2.0 | 2.0 | 0.00 | 0.00 | 0.00 | 73 | 1016.1 |
| 20260906085106 | 57 | 315 | 4.0 | 4.0 | 0.00 | 0.00 | 0.00 | 74 | 1016.1 |
| 20260906084806 | 57 | 180 | 2.0 | 2.0 | 0.00 | 0.00 | 0.00 | 75 | 1016.1 |
| 20260906084509 | 57 | 337 | 2.0 | 2.0 | 0.00 | 0.00 | 0.00 | 75 | 1016.1 |
| 20260906084206 | 57 | 225 | 3.0 | 4.0 | 0.00 | 0.00 | 0.00 | 76 | 1016.1 |
| 20260906083905 | 57 | 337 | 0.0 | 0.0 | 0.00 | 0.00 | 0.00 | 75 | 1016.1 |
| 20260906083606 | 57 | 180 | 3.0 | 4.0 | 0.00 | 0.00 | 0.00 | 75 | 1016.1 |
| 20260906083305 | 57 | 225 | 3.0 | 3.0 | 0.00 | 0.00 | 0.00 | 75 | 1016.1 |
| 20260906083006 | 57 | 180 | 0.0 | 0.0 | 0.00 | 0.00 | 0.00 | 76 | 1016.1 |
| 20260906082708 | 57 | 157 | 1.0 | 1.0 | 0.00 | 0.00 | 0.00 | 78 | 1016.1 |
| 20260906082406 | 56 | 90 | 1.0 | 1.0 | 0.00 | 0.00 | 0.00 | 78 | 1016.1 |
| 20260906082106 | 56 | 202 | 1.0 | 1.0 | 0.00 | 0.00 | 0.00 | 78 | 1016.1 |
| 20260906081805 | 56 | 270 | 0.0 | 0.0 | 0.00 | 0.00 | 0.00 | 79 | 1016.1 |
| 20260906081505 | 56 | 202 | 1.0 | 1.0 | 0.00 | 0.00 | 0.00 | 79 | 1016.1 |
| 20260906081206 | 56 | 225 | 1.0 | 2.0 | 0.00 | 0.00 | 0.00 | 79 | 1016.1 |
| 20260906080907 | 55 | 112 | 1.0 | 1.0 | 0.00 | 0.00 | 0.00 | 80 | 1016.1 |
| 20260906080305 | 55 | 180 | 1.0 | 1.0 | 0.00 | 0.00 | 0.00 | 80 | 1016.1 |
| 20260906080006 | 55 | 315 | 0.0 | 0.0 | 0.00 | 0.00 | 0.00 | 80 | 1016.1 |
| 20260906075706 | 55 | 292 | 2.0 | 2.0 | 0.00 | 0.00 | 0.00 | 81 | 1015.9 |
| 20260906075407 | 55 | 292 | 3.0 | 3.0 | 0.00 | 0.00 | 0.00 | 81 | 1016.1 |
| 20260906075106 | 55 | 202 | 2.0 | 2.0 | 0.00 | 0.00 | 0.00 | 82 | 1015.9 |
| 20260906074805 | 54 | 180 | 2.0 | 2.0 | 0.00 | 0.00 | 0.00 | 82 | 1015.9 |
| 20260906074509 | 53 | 180 | 4.0 | 4.0 | 0.00 | 0.00 | 0.00 | 82 | 1015.9 |
| 20260906074206 | 53 | 180 | 2.0 | 2.0 | 0.00 | 0.00 | 0.00 | 82 | 1015.9 |
| 20260906073906 | 53 | 225 | 3.0 | 3.0 | 0.00 | 0.00 | 0.00 | 82 | 1015.9 |
| 20260906073605 | 53 | 270 | 2.0 | 2.0 | 0.00 | 0.00 | 0.00 | 82 | 1015.9 |
| 20260906073306 | 53 | 337 | 2.0 | 2.0 | 0.00 | 0.00 | 0.00 | 83 | 1015.9 |
| 20260906073008 | 53 | 225 | 0.0 | 0.0 | 0.00 | 0.00 | 0.00 | 83 | 1015.9 |
| 20260906072706 | 52 | 270 | 2.0 | 2.0 | 0.00 | 0.00 | 0.00 | 84 | 1015.6 |
| 20260906072406 | 52 | 225 | 0.0 | 0.0 | 0.00 | 0.00 | 0.00 | 84 | 1015.9 |
| 20260906072105 | 52 | 180 | 0.0 | 0.0 | 0.00 | 0.00 | 0.00 | 84 | 1015.9 |
| 20260906071806 | 52 | 180 | 0.0 | 0.0 | 0.00 | 0.00 | 0.00 | 85 | 1015.9 |
| 20260906071505 | 52 | 135 | 1.0 | 1.0 | 0.00 | 0.00 | 0.00 | 85 | 1015.9 |
| 20260906071205 | 51 | 135 | 0.0 | 0.0 | 0.00 | 0.00 | 0.00 | 85 | 1015.6 |
| 20260906070908 | 51 | 337 | 0.0 | 0.0 | 0.00 | 0.00 | 0.00 | 85 | 1015.9 |
| 20260906070605 | 51 | 180 | 1.0 | 1.0 | 0.00 | 0.00 | 0.00 | 85 | 1015.6 |
| 20260906070306 | 51 | 90 | 0.0 | 0.0 | 0.00 | 0.00 | 0.00 | 85 | 1015.6 |
| 20260906070006 | 52 | 112 | 0.0 | 0.0 | 0.00 | 0.00 | 0.00 | 86 | 1015.6 |
| 20260906065707 | 51 | 337 | 1.0 | 1.0 | 0.00 | 0.00 | 0.00 | 85 | 1015.6 |
| 20260906065405 | 51 | 90 | 0.0 | 0.0 | 0.00 | 0.00 | 0.00 | 85 | 1015.6 |
| 20260906065106 | 51 | 90 | 1.0 | 1.0 | 0.00 | 0.00 | 0.00 | 85 | 1015.6 |
| 20260906064506 | 50 | 90 | 0.0 | 0.0 | 0.00 | 0.00 | 0.00 | 85 | 1015.6 |
| 20260906064206 | 50 | 90 | 0.0 | 0.0 | 0.00 | 0.00 | 0.00 | 85 | 1015.6 |
| 20260906063905 | 50 | 67 | 1.0 | 1.0 | 0.00 | 0.00 | 0.00 | 85 | 1015.6 |
| 20260906063606 | 50 | 90 | 0.0 | 0.0 | 0.00 | 0.00 | 0.00 | 85 | 1015.6 |
| 20260906063006 | 49 | 67 | 1.0 | 1.0 | 0.00 | 0.00 | 0.00 | 85 | 1015.6 |
| 20260906062706 | 49 | 337 | 0.0 | 0.0 | 0.00 | 0.00 | 0.00 | 84 | 1015.6 |
| 20260906062406 | 49 | 90 | 2.0 | 2.0 | 0.00 | 0.00 | 0.00 | 84 | 1015.6 |
| 20260906062105 | 49 | 90 | 1.0 | 1.0 | 0.00 | 0.00 | 0.00 | 84 | 1015.6 |
| 20260906061805 | 49 | 90 | 1.0 | 1.0 | 0.00 | 0.00 | 0.00 | 84 | 1015.4 |
| 20260906061508 | 49 | 90 | 0.0 | 0.0 | 0.00 | 0.00 | 0.00 | 84 | 1015.6 |
| 20260906061205 | 48 | 90 | 1.0 | 2.0 | 0.00 | 0.00 | 0.00 | 83 | 1015.4 |
| 20260906060906 | 47 | 247 | 0.0 | 0.0 | 0.00 | 0.00 | 0.00 | 82 | 1015.4 |
| 20260906060605 | 47 | 247 | 0.0 | 0.0 | 0.00 | 0.00 | 0.00 | 82 | 1015.6 |
| 20260906060306 | 47 | 247 | 0.0 | 0.0 | 0.00 | 0.00 | 0.00 | 82 | 1015.4 |
| 20260906060006 | 47 | 247 | 0.0 | 0.0 | 0.00 | 0.00 | 0.00 | 81 | 1015.4 |
| 20260906055705 | 46 | 67 | 0.0 | 0.0 | 0.00 | 0.00 | 0.00 | 81 | 1015.4 |
| 20260906055105 | 46 | 337 | 0.0 | 0.0 | 0.00 | 0.00 | 0.00 | 81 | 1015.1 |
| 20260906054806 | 46 | 90 | 0.0 | 0.0 | 0.00 | 0.00 | 0.00 | 81 | 1015.1 |
| 20260906054505 | 45 | 90 | 0.0 | 0.0 | 0.00 | 0.00 | 0.00 | 80 | 1015.1 |
| 20260906054205 | 45 | 90 | 0.0 | 0.0 | 0.00 | 0.00 | 0.00 | 80 | 1015.1 |
| 20260906053905 | 45 | 90 | 0.0 | 0.0 | 0.00 | 0.00 | 0.00 | 80 | 1015.1 |
| 20260906053608 | 45 | 90 | 0.0 | 0.0 | 0.00 | 0.00 | 0.00 | 80 | 1015.1 |
| 20260906053306 | 45 | 90 | 0.0 | 0.0 | 0.00 | 0.00 | 0.00 | 80 | 1015.1 |
| 20260906053006 | 45 | 67 | 2.0 | 2.0 | 0.00 | 0.00 | 0.00 | 80 | 1015.1 |
| 20260906052705 | 45 | 315 | 0.0 | 0.0 | 0.00 | 0.00 | 0.00 | 80 | 1015.1 |
| 20260906052406 | 45 | 315 | 0.0 | 0.0 | 0.00 | 0.00 | 0.00 | 80 | 1015.1 |
| 20260906052107 | 44 | 315 | 0.0 | 0.0 | 0.00 | 0.00 | 0.00 | 81 | 1015.1 |
| 20260906051805 | 43 | 337 | 0.0 | 0.0 | 0.00 | 0.00 | 0.00 | 82 | 1015.1 |
| 20260906051509 | 43 | 0 | 0.0 | 0.0 | 0.00 | 0.00 | 0.00 | 83 | 1015.1 |
| 20260906051206 | 42 | 315 | 0.0 | 0.0 | 0.00 | 0.00 | 0.00 | 84 | 1015.1 |
| 20260906050906 | 42 | 270 | 0.0 | 0.0 | 0.00 | 0.00 | 0.00 | 84 | 1015.1 |
| 20260906050606 | 41 | 270 | 0.0 | 0.0 | 0.00 | 0.00 | 0.00 | 83 | 1015.1 |
| 20260906050306 | 40 | 270 | 0.0 | 0.0 | 0.00 | 0.00 | 0.00 | 82 | 1015.1 |
| 20260906050005 | 41 | 225 | 0.0 | 0.0 | 0.00 | 0.00 | 0.00 | 82 | 1015.1 |
| 20260906045706 | 40 | 225 | 1.0 | 1.0 | 0.00 | 0.00 | 0.00 | 82 | 1015.1 |
| 20260906045106 | 40 | 270 | 0.0 | 0.0 | 0.00 | 0.00 | 0.00 | 82 | 1014.9 |
| 20260906044806 | 40 | 270 | 0.0 | 0.0 | 0.00 | 0.00 | 0.00 | 81 | 1015.1 |
| 20260906044506 | 40 | 270 | 0.0 | 0.0 | 0.00 | 0.00 | 0.00 | 81 | 1015.1 |
| 20260906044206 | 40 | 270 | 0.0 | 0.0 | 0.00 | 0.00 | 0.00 | 81 | 1015.1 |
| 20260906043906 | 40 | 270 | 0.0 | 0.0 | 0.00 | 0.00 | 0.00 | 81 | 1015.1 |
| 20260906043606 | 40 | 270 | 0.0 | 0.0 | 0.00 | 0.00 | 0.00 | 81 | 1015.1 |
| 20260906043006 | 40 | 270 | 0.0 | 0.0 | 0.00 | 0.00 | 0.00 | 80 | 1014.9 |
| 20260906042706 | 40 | 270 | 0.0 | 0.0 | 0.00 | 0.00 | 0.00 | 80 | 1014.9 |
| 20260906042406 | 40 | 337 | 0.0 | 0.0 | 0.00 | 0.00 | 0.00 | 81 | 1014.9 |
| 20260906042106 | 41 | 270 | 0.0 | 0.0 | 0.00 | 0.00 | 0.00 | 80 | 1014.6 |
| 20260906041805 | 40 | 337 | 0.0 | 0.0 | 0.00 | 0.00 | 0.00 | 80 | 1014.6 |
| 20260906041506 | 40 | 22 | 0.0 | 0.0 | 0.00 | 0.00 | 0.00 | 80 | 1014.6 |
| 20260906040906 | 40 | 337 | 0.0 | 0.0 | 0.00 | 0.00 | 0.00 | 80 | 1014.6 |
| 20260906040305 | 40 | 315 | 0.0 | 0.0 | 0.00 | 0.00 | 0.00 | 80 | 1014.6 |
| 20260906040005 | 40 | 90 | 0.0 | 0.0 | 0.00 | 0.00 | 0.00 | 80 | 1014.6 |
| 20260906035706 | 40 | 337 | 0.0 | 0.0 | 0.00 | 0.00 | 0.00 | 80 | 1014.6 |
| 20260906035407 | 40 | 45 | 0.0 | 0.0 | 0.00 | 0.00 | 0.00 | 80 | 1014.6 |
| 20260906035109 | 40 | 22 | 0.0 | 0.0 | 0.00 | 0.00 | 0.00 | 80 | 1014.6 |
| 20260906034807 | 41 | 337 | 0.0 | 0.0 | 0.00 | 0.00 | 0.00 | 81 | 1014.6 |
| 20260906034505 | 41 | 22 | 0.0 | 0.0 | 0.00 | 0.00 | 0.00 | 81 | 1014.6 |
| 20260906034206 | 41 | 22 | 0.0 | 0.0 | 0.00 | 0.00 | 0.00 | 81 | 1014.6 |
| 20260906033906 | 41 | 22 | 0.0 | 0.0 | 0.00 | 0.00 | 0.00 | 81 | 1014.6 |
| 20260906033606 | 41 | 22 | 0.0 | 0.0 | 0.00 | 0.00 | 0.00 | 80 | 1014.6 |
| 20260906033305 | 41 | 337 | 0.0 | 0.0 | 0.00 | 0.00 | 0.00 | 80 | 1014.6 |
| 20260906032706 | 41 | 22 | 0.0 | 0.0 | 0.00 | 0.00 | 0.00 | 79 | 1014.6 |
| 20260906032405 | 41 | 22 | 0.0 | 0.0 | 0.00 | 0.00 | 0.00 | 79 | 1014.6 |
| 20260906032105 | 42 | 45 | 0.0 | 0.0 | 0.00 | 0.00 | 0.00 | 79 | 1014.6 |
| 20260906031806 | 41 | 67 | 0.0 | 0.0 | 0.00 | 0.00 | 0.00 | 79 | 1014.6 |
| 20260906031506 | 41 | 67 | 0.0 | 0.0 | 0.00 | 0.00 | 0.00 | 78 | 1014.6 |
| 20260906031206 | 41 | 67 | 1.0 | 1.0 | 0.00 | 0.00 | 0.00 | 79 | 1014.6 |
| 20260906030606 | 42 | 337 | 0.0 | 0.0 | 0.00 | 0.00 | 0.00 | 79 | 1014.4 |
| 20260906030305 | 41 | 180 | 0.0 | 0.0 | 0.00 | 0.00 | 0.00 | 78 | 1014.4 |
| 20260906030006 | 41 | 180 | 0.0 | 0.0 | 0.00 | 0.00 | 0.00 | 78 | 1014.4 |
| 20260906025706 | 41 | 180 | 0.0 | 0.0 | 0.00 | 0.00 | 0.00 | 79 | 1014.4 |
| 20260906025406 | 42 | 180 | 0.0 | 0.0 | 0.00 | 0.00 | 0.00 | 79 | 1014.1 |
| 20260906025106 | 42 | 337 | 0.0 | 0.0 | 0.00 | 0.00 | 0.00 | 79 | 1014.1 |
| 20260906024506 | 42 | 180 | 0.0 | 0.0 | 0.00 | 0.00 | 0.00 | 79 | 1014.1 |
| 20260906024206 | 42 | 337 | 0.0 | 0.0 | 0.00 | 0.00 | 0.00 | 79 | 1014.1 |
| 20260906023905 | 42 | 180 | 0.0 | 0.0 | 0.00 | 0.00 | 0.00 | 79 | 1014.1 |
| 20260906023606 | 42 | 180 | 0.0 | 0.0 | 0.00 | 0.00 | 0.00 | 79 | 1014.1 |
| 20260906023306 | 42 | 180 | 0.0 | 0.0 | 0.00 | 0.00 | 0.00 | 79 | 1014.1 |
| 20260906023006 | 42 | 180 | 0.0 | 0.0 | 0.00 | 0.00 | 0.00 | 78 | 1014.1 |
| 20260906022708 | 42 | 180 | 0.0 | 0.0 | 0.00 | 0.00 | 0.00 | 78 | 1014.1 |
| 20260906022406 | 43 | 180 | 0.0 | 0.0 | 0.00 | 0.00 | 0.00 | 78 | 1014.1 |
| 20260906022105 | 42 | 180 | 0.0 | 0.0 | 0.00 | 0.00 | 0.00 | 78 | 1014.1 |
| 20260906021806 | 42 | 180 | 0.0 | 0.0 | 0.00 | 0.00 | 0.00 | 78 | 1014.1 |
| 20260906021506 | 43 | 180 | 0.0 | 0.0 | 0.00 | 0.00 | 0.00 | 79 | 1014.1 |
| 20260906021206 | 43 | 180 | 0.0 | 0.0 | 0.00 | 0.00 | 0.00 | 79 | 1014.1 |
| 20260906020906 | 43 | 180 | 0.0 | 0.0 | 0.00 | 0.00 | 0.00 | 79 | 1014.1 |
| 20260906020606 | 43 | 180 | 0.0 | 0.0 | 0.00 | 0.00 | 0.00 | 79 | 1014.1 |
| 20260906015706 | 43 | 337 | 1.0 | 1.0 | 0.00 | 0.00 | 0.00 | 78 | 1013.9 |
| 20260906015405 | 43 | 180 | 0.0 | 0.0 | 0.00 | 0.00 | 0.00 | 78 | 1013.9 |
| 20260906014806 | 43 | 180 | 0.0 | 0.0 | 0.00 | 0.00 | 0.00 | 78 | 1013.9 |
| 20260906014506 | 43 | 180 | 0.0 | 0.0 | 0.00 | 0.00 | 0.00 | 78 | 1013.9 |
| 20260906014206 | 43 | 180 | 0.0 | 0.0 | 0.00 | 0.00 | 0.00 | 77 | 1013.9 |
| 20260906013905 | 42 | 180 | 0.0 | 0.0 | 0.00 | 0.00 | 0.00 | 76 | 1013.9 |
| 20260906013606 | 42 | 180 | 0.0 | 0.0 | 0.00 | 0.00 | 0.00 | 76 | 1013.9 |
| 20260906013306 | 43 | 180 | 0.0 | 0.0 | 0.00 | 0.00 | 0.00 | 76 | 1013.6 |
| 20260906013008 | 43 | 337 | 0.0 | 0.0 | 0.00 | 0.00 | 0.00 | 77 | 1013.6 |
| 20260906012706 | 43 | 180 | 0.0 | 0.0 | 0.00 | 0.00 | 0.00 | 77 | 1013.9 |
| 20260906012406 | 43 | 180 | 0.0 | 0.0 | 0.00 | 0.00 | 0.00 | 77 | 1013.9 |
| 20260906012106 | 43 | 180 | 0.0 | 0.0 | 0.00 | 0.00 | 0.00 | 76 | 1013.6 |
| 20260906011806 | 43 | 180 | 0.0 | 0.0 | 0.00 | 0.00 | 0.00 | 76 | 1013.6 |
| 20260906011506 | 43 | 180 | 0.0 | 0.0 | 0.00 | 0.00 | 0.00 | 76 | 1013.6 |
| 20260906011205 | 43 | 180 | 0.0 | 0.0 | 0.00 | 0.00 | 0.00 | 76 | 1013.6 |
| 20260906010606 | 44 | 180 | 0.0 | 0.0 | 0.00 | 0.00 | 0.00 | 76 | 1013.6 |
| 20260906010306 | 43 | 180 | 0.0 | 0.0 | 0.00 | 0.00 | 0.00 | 76 | 1013.6 |
| 20260906010006 | 43 | 180 | 0.0 | 0.0 | 0.00 | 0.00 | 0.00 | 76 | 1013.6 |
| 20260906005706 | 43 | 180 | 0.0 | 0.0 | 0.00 | 0.00 | 0.00 | 76 | 1013.6 |
| 20260906005105 | 44 | 337 | 0.0 | 0.0 | 0.00 | 0.00 | 0.00 | 76 | 1013.9 |
| 20260906004806 | 44 | 337 | 0.0 | 0.0 | 0.00 | 0.00 | 0.00 | 77 | 1013.6 |
| 20260906004505 | 44 | 180 | 0.0 | 0.0 | 0.00 | 0.00 | 0.00 | 77 | 1013.6 |
| 20260906004206 | 44 | 180 | 0.0 | 0.0 | 0.00 | 0.00 | 0.00 | 76 | 1013.6 |
| 20260906003906 | 44 | 180 | 0.0 | 0.0 | 0.00 | 0.00 | 0.00 | 77 | 1013.9 |
| 20260906003606 | 44 | 180 | 0.0 | 0.0 | 0.00 | 0.00 | 0.00 | 77 | 1013.6 |
| 20260906003005 | 45 | 180 | 0.0 | 0.0 | 0.00 | 0.00 | 0.00 | 77 | 1013.6 |
| 20260906002705 | 45 | 157 | 0.0 | 0.0 | 0.00 | 0.00 | 0.00 | 76 | 1013.6 |
| 20260906002406 | 44 | 90 | 0.0 | 0.0 | 0.00 | 0.00 | 0.00 | 76 | 1013.6 |
| 20260906002106 | 44 | 337 | 0.0 | 0.0 | 0.00 | 0.00 | 0.00 | 76 | 1013.4 |
| 20260906001805 | 44 | 90 | 0.0 | 0.0 | 0.00 | 0.00 | 0.00 | 76 | 1013.6 |
| 20260906001506 | 45 | 90 | 0.0 | 0.0 | 0.00 | 0.00 | 0.00 | 76 | 1013.6 |
| 20260906001209 | 44 | 337 | 0.0 | 0.0 | 0.00 | 0.00 | 0.00 | 76 | 1013.6 |
| 20260906000906 | 45 | 90 | 0.0 | 0.0 | 0.00 | 0.00 | 0.00 | 76 | 1013.6 |
| 20260906000606 | 45 | 180 | 0.0 | 0.0 | 0.00 | 0.00 | 0.00 | 76 | 1013.6 |
| 20260906000307 | 45 | 180 | 0.0 | 0.0 | 0.00 | 0.00 | 0.00 | 77 | 1013.6 |
| 20260906000005 | 46 | 180 | 0.0 | 0.0 | 0.00 | 0.00 | 0.00 | 77 | 1013.6 |
| 20260905235705 | 46 | 180 | 0.0 | 0.0 | 0.00 | 0.00 | 0.00 | 77 | 1013.6 |
| 20260905235405 | 46 | 157 | 0.0 | 0.0 | 0.00 | 0.00 | 0.00 | 76 | 1013.6 |
| 20260905234805 | 45 | 90 | 0.0 | 0.0 | 0.00 | 0.00 | 0.00 | 75 | 1013.6 |
| 20260905234506 | 45 | 90 | 0.0 | 0.0 | 0.00 | 0.00 | 0.00 | 75 | 1013.4 |
| 20260905234206 | 45 | 90 | 0.0 | 0.0 | 0.00 | 0.00 | 0.00 | 75 | 1013.2 |
| 20260905233906 | 45 | 90 | 0.0 | 0.0 | 0.00 | 0.00 | 0.00 | 76 | 1013.4 |
| 20260905233606 | 46 | 90 | 0.0 | 0.0 | 0.00 | 0.00 | 0.00 | 76 | 1013.4 |
| 20260905233006 | 46 | 90 | 0.0 | 0.0 | 0.00 | 0.00 | 0.00 | 76 | 1013.4 |
| 20260905232706 | 46 | 90 | 0.0 | 0.0 | 0.00 | 0.00 | 0.00 | 76 | 1013.4 |
| 20260905232406 | 46 | 180 | 0.0 | 0.0 | 0.00 | 0.00 | 0.00 | 76 | 1013.4 |
| 20260905232106 | 47 | 180 | 0.0 | 0.0 | 0.00 | 0.00 | 0.00 | 76 | 1013.2 |
| 20260905231806 | 47 | 90 | 0.0 | 0.0 | 0.00 | 0.00 | 0.00 | 76 | 1013.2 |
| 20260905231509 | 47 | 0 | 0.0 | 0.0 | 0.00 | 0.00 | 0.00 | 75 | 1013.2 |
| 20260905231206 | 46 | 0 | 0.0 | 0.0 | 0.00 | 0.00 | 0.00 | 75 | 1013.2 |
| 20260905230906 | 47 | 337 | 0.0 | 0.0 | 0.00 | 0.00 | 0.00 | 75 | 1013.2 |
| 20260905230606 | 47 | 22 | 0.0 | 0.0 | 0.00 | 0.00 | 0.00 | 75 | 1013.2 |
| 20260905230306 | 47 | 337 | 1.0 | 2.0 | 0.00 | 0.00 | 0.00 | 75 | 1013.2 |
| 20260905225706 | 47 | 180 | 0.0 | 0.0 | 0.00 | 0.00 | 0.00 | 75 | 1013.2 |
| 20260905225406 | 47 | 180 | 0.0 | 0.0 | 0.00 | 0.00 | 0.00 | 75 | 1013.2 |
| 20260905225106 | 47 | 337 | 0.0 | 0.0 | 0.00 | 0.00 | 0.00 | 75 | 1013.2 |
| 20260905224806 | 47 | 180 | 0.0 | 0.0 | 0.00 | 0.00 | 0.00 | 75 | 1013.2 |
| 20260905224506 | 47 | 180 | 0.0 | 0.0 | 0.00 | 0.00 | 0.00 | 75 | 1013.2 |
| 20260905224209 | 47 | 180 | 0.0 | 0.0 | 0.00 | 0.00 | 0.00 | 74 | 1013.2 |
| 20260905223606 | 47 | 180 | 0.0 | 0.0 | 0.00 | 0.00 | 0.00 | 74 | 1013.2 |
| 20260905223006 | 48 | 180 | 0.0 | 0.0 | 0.00 | 0.00 | 0.00 | 75 | 1012.9 |
| 20260905222406 | 47 | 180 | 0.0 | 0.0 | 0.00 | 0.00 | 0.00 | 75 | 1012.9 |
| 20260905221806 | 48 | 180 | 0.0 | 0.0 | 0.00 | 0.00 | 0.00 | 76 | 1012.9 |
| 20260905221505 | 48 | 180 | 0.0 | 0.0 | 0.00 | 0.00 | 0.00 | 76 | 1012.7 |
| 20260905221206 | 48 | 180 | 0.0 | 0.0 | 0.00 | 0.00 | 0.00 | 75 | 1012.9 |
| 20260905220906 | 48 | 180 | 0.0 | 0.0 | 0.00 | 0.00 | 0.00 | 76 | 1012.9 |
| 20260905220606 | 48 | 180 | 0.0 | 0.0 | 0.00 | 0.00 | 0.00 | 75 | 1012.7 |
| 20260905220305 | 48 | 180 | 0.0 | 0.0 | 0.00 | 0.00 | 0.00 | 73 | 1012.7 |
| 20260905220009 | 48 | 180 | 0.0 | 0.0 | 0.00 | 0.00 | 0.00 | 72 | 1012.7 |
| 20260905215705 | 48 | 180 | 0.0 | 0.0 | 0.00 | 0.00 | 0.00 | 72 | 1012.7 |
| 20260905215406 | 48 | 180 | 0.0 | 0.0 | 0.00 | 0.00 | 0.00 | 72 | 1012.7 |
| 20260905215106 | 49 | 180 | 0.0 | 0.0 | 0.00 | 0.00 | 0.00 | 72 | 1012.7 |
| 20260905214806 | 49 | 337 | 0.0 | 0.0 | 0.00 | 0.00 | 0.00 | 72 | 1012.7 |
| 20260905214506 | 49 | 180 | 0.0 | 0.0 | 0.00 | 0.00 | 0.00 | 72 | 1012.7 |
| 20260905213906 | 49 | 180 | 0.0 | 0.0 | 0.00 | 0.00 | 0.00 | 72 | 1012.7 |
| 20260905213606 | 49 | 180 | 0.0 | 0.0 | 0.00 | 0.00 | 0.00 | 72 | 1012.4 |
| 20260905213305 | 49 | 180 | 0.0 | 0.0 | 0.00 | 0.00 | 0.00 | 72 | 1012.4 |
| 20260905213006 | 49 | 180 | 0.0 | 0.0 | 0.00 | 0.00 | 0.00 | 71 | 1012.4 |
| 20260905212706 | 49 | 180 | 0.0 | 0.0 | 0.00 | 0.00 | 0.00 | 71 | 1012.7 |
| 20260905212405 | 49 | 180 | 0.0 | 0.0 | 0.00 | 0.00 | 0.00 | 72 | 1012.4 |
| 20260905211806 | 50 | 180 | 0.0 | 0.0 | 0.00 | 0.00 | 0.00 | 72 | 1012.4 |
| 20260905211506 | 50 | 180 | 0.0 | 0.0 | 0.00 | 0.00 | 0.00 | 72 | 1012.7 |
| 20260905211206 | 51 | 180 | 0.0 | 0.0 | 0.00 | 0.00 | 0.00 | 72 | 1012.4 |
| 20260905210906 | 50 | 180 | 0.0 | 0.0 | 0.00 | 0.00 | 0.00 | 72 | 1012.4 |
| 20260905210605 | 51 | 180 | 0.0 | 0.0 | 0.00 | 0.00 | 0.00 | 71 | 1012.4 |
| 20260905210309 | 51 | 180 | 0.0 | 0.0 | 0.00 | 0.00 | 0.00 | 71 | 1012.4 |
| 20260905210005 | 51 | 180 | 0.0 | 0.0 | 0.00 | 0.00 | 0.00 | 71 | 1012.4 |
| 20260905205706 | 51 | 337 | 0.0 | 0.0 | 0.00 | 0.00 | 0.00 | 71 | 1012.2 |
| 20260905205406 | 51 | 180 | 0.0 | 0.0 | 0.00 | 0.00 | 0.00 | 71 | 1012.4 |
| 20260905205106 | 51 | 337 | 0.0 | 0.0 | 0.00 | 0.00 | 0.00 | 71 | 1012.2 |
| 20260905204806 | 52 | 180 | 0.0 | 0.0 | 0.00 | 0.00 | 0.00 | 72 | 1012.2 |
| 20260905204506 | 52 | 45 | 0.0 | 0.0 | 0.00 | 0.00 | 0.00 | 72 | 1012.2 |
| 20260905204209 | 52 | 337 | 0.0 | 0.0 | 0.00 | 0.00 | 0.00 | 72 | 1012.2 |
| 20260905203906 | 52 | 45 | 0.0 | 0.0 | 0.00 | 0.00 | 0.00 | 72 | 1012.2 |
| 20260905203606 | 52 | 337 | 0.0 | 0.0 | 0.00 | 0.00 | 0.00 | 72 | 1012.2 |
| 20260905203305 | 52 | 45 | 0.0 | 0.0 | 0.00 | 0.00 | 0.00 | 72 | 1012.2 |
| 20260905203005 | 52 | 45 | 0.0 | 0.0 | 0.00 | 0.00 | 0.00 | 71 | 1012.2 |
| 20260905202705 | 52 | 45 | 0.0 | 0.0 | 0.00 | 0.00 | 0.00 | 71 | 1012.2 |
| 20260905202106 | 52 | 45 | 0.0 | 0.0 | 0.00 | 0.00 | 0.00 | 70 | 1012.2 |
| 20260905201806 | 52 | 45 | 0.0 | 0.0 | 0.00 | 0.00 | 0.00 | 69 | 1012.2 |
| 20260905201505 | 51 | 337 | 0.0 | 0.0 | 0.00 | 0.00 | 0.00 | 69 | 1012.2 |
| 20260905201206 | 51 | 45 | 0.0 | 0.0 | 0.00 | 0.00 | 0.00 | 68 | 1012.2 |
| 20260905200906 | 51 | 45 | 0.0 | 0.0 | 0.00 | 0.00 | 0.00 | 68 | 1012.2 |
| 20260905200608 | 51 | 45 | 0.0 | 0.0 | 0.00 | 0.00 | 0.00 | 68 | 1012.2 |
| 20260905200305 | 51 | 45 | 0.0 | 0.0 | 0.00 | 0.00 | 0.00 | 68 | 1012.2 |
| 20260905200006 | 52 | 45 | 0.0 | 0.0 | 0.00 | 0.00 | 0.00 | 67 | 1011.9 |
| 20260905195706 | 52 | 45 | 0.0 | 0.0 | 0.00 | 0.00 | 0.00 | 67 | 1011.9 |
| 20260905195406 | 52 | 45 | 0.0 | 0.0 | 0.00 | 0.00 | 0.00 | 67 | 1012.2 |
| 20260905195105 | 52 | 45 | 0.0 | 0.0 | 0.00 | 0.00 | 0.00 | 67 | 1011.9 |
| 20260905194805 | 52 | 337 | 0.0 | 0.0 | 0.00 | 0.00 | 0.00 | 67 | 1011.9 |
| 20260905194509 | 52 | 45 | 0.0 | 0.0 | 0.00 | 0.00 | 0.00 | 66 | 1011.7 |
| 20260905194206 | 52 | 45 | 0.0 | 0.0 | 0.00 | 0.00 | 0.00 | 66 | 1011.7 |
| 20260905193905 | 53 | 45 | 0.0 | 0.0 | 0.00 | 0.00 | 0.00 | 65 | 1011.7 |
| 20260905193606 | 53 | 45 | 0.0 | 0.0 | 0.00 | 0.00 | 0.00 | 65 | 1011.9 |
| 20260905193306 | 53 | 337 | 0.0 | 0.0 | 0.00 | 0.00 | 0.00 | 65 | 1011.7 |
| 20260905193007 | 53 | 45 | 0.0 | 0.0 | 0.00 | 0.00 | 0.00 | 65 | 1011.7 |
| 20260905192706 | 53 | 45 | 0.0 | 0.0 | 0.00 | 0.00 | 0.00 | 65 | 1011.7 |
| 20260905192106 | 54 | 45 | 0.0 | 0.0 | 0.00 | 0.00 | 0.00 | 64 | 1011.7 |
| 20260905191806 | 54 | 45 | 0.0 | 0.0 | 0.00 | 0.00 | 0.00 | 64 | 1011.7 |
| 20260905191505 | 54 | 45 | 0.0 | 0.0 | 0.00 | 0.00 | 0.00 | 64 | 1011.7 |
| 20260905191206 | 54 | 22 | 0.0 | 0.0 | 0.00 | 0.00 | 0.00 | 64 | 1011.7 |
| 20260905190605 | 55 | 22 | 0.0 | 0.0 | 0.00 | 0.00 | 0.00 | 63 | 1011.7 |
| 20260905190306 | 55 | 22 | 0.0 | 0.0 | 0.00 | 0.00 | 0.00 | 63 | 1011.7 |
| 20260905190006 | 55 | 22 | 0.0 | 0.0 | 0.00 | 0.00 | 0.00 | 63 | 1011.4 |
| 20260905185706 | 55 | 0 | 0.0 | 0.0 | 0.00 | 0.00 | 0.00 | 62 | 1011.4 |
| 20260905185105 | 56 | 0 | 0.0 | 0.0 | 0.00 | 0.00 | 0.00 | 62 | 1011.7 |
| 20260905184805 | 57 | 0 | 0.0 | 0.0 | 0.00 | 0.00 | 0.00 | 61 | 1011.7 |
| 20260905184505 | 57 | 0 | 0.0 | 0.0 | 0.00 | 0.00 | 0.00 | 60 | 1011.4 |
| 20260905184206 | 57 | 0 | 0.0 | 0.0 | 0.00 | 0.00 | 0.00 | 59 | 1011.4 |
| 20260905183906 | 58 | 0 | 0.0 | 0.0 | 0.00 | 0.00 | 0.00 | 59 | 1011.4 |
| 20260905183307 | 59 | 0 | 1.0 | 1.0 | 0.00 | 0.00 | 0.00 | 58 | 1011.4 |
| 20260905183006 | 59 | 0 | 1.0 | 1.0 | 0.00 | 0.00 | 0.00 | 57 | 1011.2 |
| 20260905182706 | 60 | 0 | 0.0 | 0.0 | 0.00 | 0.00 | 0.00 | 57 | 1011.2 |
| 20260905182406 | 61 | 0 | 1.0 | 1.0 | 0.00 | 0.00 | 0.00 | 57 | 1011.2 |
| 20260905182106 | 61 | 337 | 2.0 | 2.0 | 0.00 | 0.00 | 0.00 | 56 | 1011.2 |
| 20260905181806 | 61 | 315 | 1.0 | 1.0 | 0.00 | 0.00 | 0.00 | 55 | 1011.2 |